Find Starlink 35998

NORAD ID: 68055 Int'l Des: 2026-041 Owner: SPXS Country: US Constellation: starlink operational
LEOCIRCULAR

リアルタイム位置

3D地球を読み込み中...

Starlink 35998について

説明を読み込み中...

次回通過

Passes for default location (London). Set your location on the main map for personalized predictions.

高度履歴

Loading altitude history...

軌道要素

1 68055U 26041R 26106.83335647 -.02159492 00000-0 -58276-1 0 9994
2 68055 53.1597 233.0287 0001332 59.3740 301.6681 15.40505415 6054
Epoch: Apr 16, 2026 • Age: 5 hours

現在のステータス

高度 446.9 km
速度 7.65 km/s
衛星直下点 11.28°N, 24.53°E
打ち上げ日 Mar 2, 2026
運用期間 0.1 years
タイプ internet

技術仕様

分類 Payload
質量 575.00 kg
乾燥質量 530.00 kg
総質量 575.00 kg
長さ 0.30 m
直径 4.10 m
スパン 29.00 m
形状 Box + pan
製造者 SPXS
バスタイプ Starlink V2MO
フェーズステータス In Orbit
所有者/国 SPXS/US

Most Searched